Location: Bakhuizen
(52.8696°N, 5.4575°E)
Time: 04:34:44
(UTC+00:00)

Cosmos 1271 Rocket - Pass Details

Date: 11 May 2021
Orbit: 497 x 545 km, 81.2° (Epoch: 14 June)

Event Time Altitude Azimuth Distance (km) Brightness Sun altitude
Exits shadow 21:54:45 12° 214° (SSW) 1,685 5.0 -15.8°
Maximum altitude 21:58:19 48° 288° (WNW) 719 3.6 -16.0°
Drops below altitude 10° 22:02:14 10° 4° (N) 1,827 6.5 -16.2°
Sets 22:04:28 0° 10° (N) 2,722 7.4 -16.4°
